Location: *
(37.9500°N, 27.3666°E)
Time: 12:09:16
(UTC+00:00)

Cosmos 614 Rocket - Visible Passes

Search period start: 29 May 2022 00:00
Search period end: 08 June 2022 00:00
Orbit: 732 x 763 km, 74.1° (Epoch: 29 May)

Date Brightness Start Highest point End Pass type
(mag) Time Alt. Az. Time Alt. Az. Time Alt. Az.
29 May 5.7 01:35:26 10° WNW 01:38:08 14° W 01:38:46 14° WSW visible
29 May 5.5 23:09:17 10° N 23:13:53 31° ENE 23:15:55 23° ESE visible
30 May 4.9 00:50:57 10° NW 00:55:24 29° W 00:55:43 29° WSW visible
30 May 6.3 22:27:13 10° NNE 22:30:29 16° ENE 22:32:58 12° E visible
31 May 4.0 00:07:23 10° NNW 00:12:30 59° WSW 00:12:45 59° WSW visible
31 May 4.1 23:24:16 10° NNW 23:29:29 69° ENE 23:29:52 66° E visible
01 Jun 6.0 01:08:23 10° WNW 01:09:40 12° W 01:09:40 12° W visible
01 Jun 5.2 22:41:31 10° N 22:46:17 35° ENE 22:47:04 33° E visible
02 Jun 5.3 00:23:28 10° NW 00:26:52 24° W 00:26:52 24° W visible
02 Jun 6.0 21:59:18 10° NNE 22:02:55 19° ENE 22:04:19 17° E visible
02 Jun 4.4 23:39:47 10° NNW 23:44:07 48° WNW 23:44:07 48° WNW visible
03 Jun 4.1 22:56:35 10° NNW 23:01:25 73° NNE 23:01:25 73° NNE visible
04 Jun 4.9 22:13:46 10° N 22:18:40 39° ENE 22:18:46 39° ENE visible
04 Jun 5.7 23:56:02 10° NW 23:58:35 20° WNW 23:58:35 20° WNW visible
05 Jun 5.8 21:31:25 10° NNE 21:35:19 21° ENE 21:36:09 20° ENE visible
05 Jun 4.9 23:12:12 10° NNW 23:15:59 38° WNW 23:15:59 38° WNW visible
06 Jun 6.5 20:50:23 10° NE 20:51:49 11° NE 20:53:13 10° ENE visible
06 Jun 4.2 22:28:56 10° NNW 22:33:23 65° NNW 22:33:23 65° NNW visible
07 Jun 4.7 21:46:02 10° N 21:50:51 45° ENE 21:50:51 45° ENE visible
07 Jun 5.9 23:28:37 10° NW 23:30:41 17° WNW 23:30:41 17° WNW visible
